User: anonymous   Login
Location: Newark
(45.4422°N, 16.2769°E)
Time: 06:11:51
(UTC+00:00)
Language:

Transit 4A - Orbit

View from above orbital plane
View from above orbital plane
View from above satellite
View from above satellite

Ground track
Ground track

The orbit data is extracted from the following two-line orbital elements,

1   116U 61015A   19348.35269559 -.00000036  00000-0  31126-4 0  9997
2   116  66.8102 303.1461 0071566 143.4853 217.1137 13.91762283966414
Epoch (UTC): 14 December 2019 08:27:52
Eccentricity: 0.0071566
inclination: 66.8102°
perigee height: 870 km
apogee height: 975 km
right ascension of ascending node: 303.1461°
argument of perigee: 143.4853°
revolutions per day: 13.91762283
mean anomaly at epoch: 217.1137°
orbit number at epoch: 96641

The dashed part of the orbit path shows where the satellite is in the earth's shadow,  

DLR